SCP
0 -0 0 0 0 0 0 0 0 0 0 0 0 0 0 1 0 -1 -0 0 1 1 1 0 0 0 0 0 0 0 1 0 0 0 0 0 0 0 0 0 0 0 0
0 0 0 0 0 0 0 0 0 0 0 0 0 1 0 0 0 0 0 0 1 1 1 0 0 0 0 0 1 1 0 0 0 0 0 0 0 0 0 0 0 0 0
0 0 0 0 0 0 0 0 0 0 0 0 0 0 0 0 0 0 0 0 0 0 0 0 0 0 0 0 0 0 0 0 0 0 0 0 0 0 0 0 0 0 0
0 0 0 0 0 0 0 0 0 0 0 0 0 0 0 0 0 -0 -0 -0 0 0 0 0 0 0 0 0 -0 0 0 0 0 0 -0 -0 0 0 -0 0 0 0 0
0 0 0 0 0 0 0 0 0 0 0 0 0 0 0 0 0 0 0 0 -0 -0 0 0 0 0 0 0 0 0 0 0 0 0 -0 0 0 0 0 0 0 0 0
0 -0 -0 0 0 0 0 0 0 0 0 0 0 0 0 0 0 0 0 0 -0 0 0 0 0 0 0 0 0 0 0 0 0 0 0 0 0 0 0 0 0 0 0
-0 -0 -0 -0 -0 0 0 0 0 0 0 0 0 0 0 0 0 0 0 0 0 0 0 0 0 0 0 0 0 0 0 0 0 0 0 -0 -0 0 0 0 0 0 0
-0 -0 -0 -0 -0 0 0 0 0 0 0 0 0 0 0 0 0 0 0 0 0 0 0 0 0 0 0 0 0 0 0 0 0 -0 -0 -0 -0 0 0 0 0 0 0
-0 -0 -0 -0 -0 -0 -0 0 0 0 0 0 0 0 0 0 0 0 0 0 0 0 0 0 0 0 0 0 0 0 0 0 0 0 0 -0 0 0 0 0 0 0 0
-0 -0 -0 -0 -0 0 0 0 0 0 0 0 0 0 0 0 -0 -0 0 0 0 0 0 0 0 0 0 0 0 0 0 0 0 0 0 0 0 0 0 0 0 0 0
0 0 0 0 0 0 0 0 0 0 0 0 0 -0 -0 -0 -0 -0 -0 -0 -0 0 0 0 0 0 0 0 0 0 0 0 0 0 0 0 0 0 0 0 0 0 0
0 0 0 0 0 0 0 0 0 0 0 0 0 -0 -0 -0 -0 -0 -0 -0 -0 -0 0 0 0 0 0 0 0 0 0 0 0 0 0 0 0 0 0 0 0 0 0
0 0 0 0 0 0 0 0 0 0 0 0 0 0 -0 0 -0 0 -0 -0 -0 -0 -0 0 0 0 0 0 0 0 0 0 0 0 0 0 0 0 0 0 0 0 0
0 0 0 0 0 0 0 0 0 0 0 0 0 0 0 0 0 0 0 0 0 -0 -0 -0 0 0 0 0 0 0 0 0 0 0 0 0 0 0 0 0 0 0 0
0 0 0 0 0 0 0 0 0 0 0 0 0 0 0 0 0 0 0 0 0 -0 -0 -0 -0 0 0 0 0 0 0 0 0 0 0 0 0 0 0 0 0 0 0
0 0 0 0 0 0 0 0 0 0 0 0 0 0 0 0 0 0 0 0 0 0 -0 -0 -0 -0 0 0 0 0 0 0 0 0 0 0 0 0 0 0 0 0 0
0 0 0 0 0 0 0 0 0 0 0 0 0 0 0 0 0 0 0 0 0 0 -0 -0 -0 0 0 0 0 0 0 0 0 0 0 0 0 0 0 0 0 0 0
0 0 0 0 0 0 0 0 0 0 0 0 0 0 0 0 0 0 0 0 0 -0 -0 -0 0 0 0 0 0 0 0 0 0 0 0 0 0 0 0 0 0 0 0
0 0 0 0 0 0 0 0 0 0 0 0 0 0 0 0 0 0 0 0 0 -0 -0 0 0 0 0 0 0 0 0 0 0 0 0 0 0 0 0 0 0 0 0
0 0 0 0 0 0 0 0 0 0 0 0 0 0 0 0 0 0 0 0 0 0 0 0 0 0 0 0 0 0 0 0 0 0 0 0 0 0 0 0 0 0 0
0 0 0 0 0 0 0 0 0 0 0 0 0 0 0 0 0 0 0 0 0 0 0 0 0 0 0 0 0 0 0 0 0 0 0 0 0 0 0 0 0 0 0
0 0 0 0 0 0 0 0 0 0 0 0 0 0 0 0 0 0 0 0 0 0 0 0 0 0 0 0 0 0 0 0 0 0 0 0 0 0 0 0 0 0 0
0 0 0 0 0 0 0 0 0 0 0 0 0 0 0 0 0 0 0 0 0 0 0 0 0 0 0 0 0 0 0 0 0 0 0 0 0 0 0 0 0 0 0
0 0 0 0 0 0 0 0 0 0 0 0 0 0 0 0 0 0 0 0 0 0 0 0 0 0 0 0 0 0 0 0 0 0 0 0 0 0 0 0 0 0 0
0 0 0 0 0 0 0 0 0 0 0 0 0 0 0 0 0 0 0 0 0 0 0 0 0 0 0 0 0 0 0 0 0 0 0 0 0 0 0 0 0 0 0
0 0 0 0 0 0 0 0 0 0 0 0 0 0 0 0 0 0 0 0 0 0 0 0 0 0 0 0 0 0 0 0 0 -0 0 0 0 0 0 0 0 0 0
Wind_Speed_500mb
57 52 53 48 34 26 15 14 38 44 52 51 58 60 56 52 58 69 76 65 60 62 65 57 71 69 58 56 56 51 48 52 54 55 54 53 52 51 40 42 51 49 41
45 47 50 52 49 39 30 12 6 14 29 42 46 50 52 54 55 63 63 67 71 69 66 62 62 60 58 52 54 52 47 53 53 55 61 68 65 61 47 51 63 67 56
44 44 45 45 40 41 36 25 15 9 11 15 23 39 49 52 60 57 60 61 60 64 61 48 34 45 50 46 62 57 56 52 45 34 34 26 23 32 33 37 52 56 52
38 38 36 39 42 40 32 27 25 22 20 19 20 18 18 28 30 36 43 57 62 55 50 58 41 70 87 76 77 68 55 49 31 37 44 32 44 54 49 34 37 36 34
30 28 26 29 29 29 29 27 26 25 28 28 26 24 22 22 25 26 36 46 42 36 36 18 27 55 61 64 59 40 42 17 17 29 30 43 24 36 55 57 50 42 17
23 22 19 15 15 17 19 23 26 29 32 34 35 31 29 25 24 24 25 23 23 25 19 7 31 33 41 33 41 41 47 64 45 66 43 47 25 54 47 38 32 31 35
16 17 15 13 12 10 11 16 22 28 32 33 33 34 33 33 34 35 29 26 20 12 14 8 11 13 10 22 39 56 70 58 72 46 47 46 44 48 47 38 41 30 27
9 10 12 11 7 1 4 13 19 22 25 26 26 27 29 32 34 35 36 32 28 24 18 11 16 12 9 7 14 27 32 29 47 49 52 56 50 43 43 42 45 50 46
14 9 7 6 5 3 4 11 13 15 15 19 22 25 29 31 33 31 26 21 20 18 13 10 8 10 10 12 8 8 6 12 25 33 35 47 43 40 34 42 45 51 52
30 26 20 15 9 3 7 7 6 6 10 15 21 27 32 37 37 34 33 29 24 19 13 6 5 6 11 10 9 8 10 7 11 18 26 34 36 34 28 31 37 36 38
37 32 28 23 15 4 5 7 2 1 6 8 12 21 26 33 38 39 41 40 34 29 24 21 17 11 8 6 17 18 16 11 11 8 5 4 9 14 16 13 14 24 28
40 40 35 29 21 10 4 3 5 4 5 10 14 19 27 33 36 40 43 45 43 36 33 31 26 21 21 23 15 16 16 19 16 15 13 11 9 11 12 13 15 18 22
48 47 41 36 26 18 7 9 8 6 3 9 13 18 26 29 30 35 40 42 42 41 38 40 40 34 23 17 22 23 27 25 28 28 23 20 14 12 11 12 18 20 18
39 43 46 41 32 23 13 14 8 8 8 10 18 21 27 28 30 34 36 42 39 40 40 43 49 42 28 22 18 23 30 34 36 39 38 35 30 25 19 19 18 14 15
25 37 50 49 41 28 15 12 22 17 14 20 24 27 29 33 33 33 36 36 39 50 50 46 49 51 36 25 23 23 28 31 34 37 35 39 36 30 25 16 17 17 13
18 10 29 48 44 44 29 23 21 19 28 36 28 29 38 39 38 28 31 39 43 45 44 49 60 54 34 26 24 23 25 29 36 37 31 24 25 30 29 33 27 19 16
16 12 4 17 38 42 35 25 21 29 31 21 22 31 29 26 22 22 30 32 35 41 49 59 55 47 33 27 24 26 22 26 28 30 33 25 22 21 19 27 37 34 31
13 9 7 9 16 17 19 22 19 20 9 3 4 15 19 21 24 31 36 38 42 50 58 51 46 43 38 36 29 24 23 25 25 23 30 24 26 25 22 19 20 19 17
14 10 6 8 14 15 12 14 16 14 12 20 22 27 30 33 35 38 43 50 54 55 54 50 45 39 32 30 26 24 27 30 27 20 22 26 29 20 17 16 16 19 23
16 18 15 15 11 8 8 19 23 30 26 27 25 30 36 41 48 49 48 43 44 43 46 44 34 28 26 25 28 30 25 29 27 24 25 29 30 31 27 26 29 31 37
23 21 14 6 7 5 11 21 29 26 28 34 38 41 44 51 53 60 49 37 38 41 43 38 33 27 26 28 33 36 37 37 35 34 32 32 33 35 37 39 36 38 36
15 9 14 19 17 23 22 22 22 20 25 31 36 45 50 54 50 43 34 33 34 36 34 34 36 30 32 38 38 38 40 40 39 41 42 44 44 47 47 46 46 45 54
12 8 1 7 5 4 5 12 17 24 31 39 44 45 35 26 24 26 28 30 28 32 37 40 43 41 38 39 36 37 42 45 46 47 51 55 54 53 51 48 54 62 60
6 4 4 10 17 19 26 32 29 28 28 25 27 27 32 32 31 27 26 26 32 34 37 39 39 38 33 34 35 36 38 42 40 40 40 41 44 47 49 48 50 45 34
6 6 2 9 18 26 18 15 19 24 26 26 27 37 39 34 27 26 25 26 33 32 32 34 38 33 32 35 38 42 38 32 39 33 27 28 25 25 21 20 21 21 23
3 5 14 19 16 13 22 23 22 25 25 26 40 37 35 31 23 24 20 24 31 31 28 31 31 26 31 35 37 26 30 35 30 30 27 26 27 30 32 33 32 30 30
Wind_Direction_500mb
105 91 85 81 77 86 100 181 207 217 229 241 245 260 244 259 262 274 266 260 262 267 265 271 257 254 257 255 252 254 266 268 269 273 274 269 264 259 262 235 243 249 255
82 75 70 66 64 62 62 60 312 249 248 239 242 259 255 255 268 272 268 259 256 258 258 257 249 249 260 265 253 254 255 260 269 273 279 283 276 267 259 245 236 254 255
70 63 50 46 45 43 42 46 53 31 0 312 285 260 260 262 261 274 275 266 255 255 255 253 250 253 266 272 270 252 250 262 259 279 307 308 313 310 290 279 256 252 249
61 56 51 46 42 41 35 32 36 35 29 13 346 336 325 312 326 322 314 304 304 302 271 269 301 273 278 273 297 280 263 255 274 296 318 304 288 308 296 283 253 256 272
63 62 57 51 47 47 43 33 29 40 38 30 26 13 9 9 2 349 329 320 328 328 329 292 230 238 245 259 270 238 246 298 300 351 324 315 269 293 275 280 283 274 277
81 77 63 62 61 43 35 22 17 18 22 11 9 11 18 15 5 9 17 11 355 347 329 235 209 243 262 270 238 228 278 265 254 306 287 287 243 246 267 281 280 281 282
86 76 81 89 75 52 12 5 8 2 5 13 15 19 19 14 18 19 14 9 15 4 355 333 238 283 290 274 260 258 254 255 259 265 261 236 239 268 265 264 268 270 272
95 88 83 85 92 131 315 353 0 15 25 30 33 29 26 24 24 25 24 24 24 22 11 334 305 312 304 358 316 264 255 242 232 261 257 267 274 263 261 267 263 274 271
185 167 179 172 181 219 345 357 11 35 41 48 51 52 52 48 42 36 30 26 22 25 16 18 1 350 322 7 5 21 357 292 276 269 255 274 281 273 266 270 265 266 270
210 209 206 200 199 225 346 1 41 44 76 72 62 52 42 34 30 26 28 28 23 15 6 5 1 320 325 357 12 13 20 339 301 279 271 278 276 270 271 269 269 261 260
217 216 210 209 214 214 340 302 290 112 99 79 38 14 19 16 16 20 23 18 13 11 5 355 343 337 332 311 279 295 300 319 288 299 263 311 298 280 274 271 277 270 264
226 221 211 216 231 228 257 272 209 199 276 326 350 15 13 15 20 23 23 21 18 15 14 8 353 329 319 323 321 327 317 301 310 305 298 312 330 343 326 311 307 307 302
219 221 214 227 227 231 274 299 224 184 91 60 18 17 3 360 6 11 11 17 18 13 15 14 8 358 343 331 306 321 326 297 290 296 302 317 318 294 300 309 316 315 312
221 224 225 229 230 238 288 284 270 220 225 318 327 351 353 348 348 349 355 1 8 3 360 2 1 356 345 333 332 316 307 313 312 297 296 296 295 304 316 308 295 298 305
204 226 227 222 217 221 236 326 268 254 272 291 320 328 339 338 335 327 340 348 348 351 350 348 346 341 334 334 324 326 330 330 329 327 300 289 285 286 284 326 313 274 278
66 172 221 215 211 221 232 270 238 244 272 274 300 319 317 317 317 308 330 330 335 339 337 335 333 332 329 325 312 316 323 327 331 334 329 321 289 279 283 277 297 312 300
91 96 106 225 237 233 269 240 244 256 274 255 286 302 308 317 311 312 317 319 321 326 327 326 329 335 330 326 319 306 317 316 326 333 333 324 315 311 308 291 283 291 294
103 100 134 196 225 242 247 225 238 216 224 211 265 290 306 314 312 307 309 315 321 325 327 331 327 327 328 327 318 309 301 303 309 324 336 332 316 314 312 297 296 309 301
112 107 103 151 154 153 137 184 217 215 251 293 299 300 304 310 311 312 315 311 312 317 317 320 328 331 331 332 318 304 302 302 301 298 308 316 331 322 323 324 313 300 297
166 164 162 164 188 208 265 275 287 298 285 286 295 308 314 312 313 315 313 312 314 316 322 324 331 339 337 321 321 321 313 307 308 279 287 296 311 316 306 307 314 311 311
162 155 154 141 130 136 305 294 292 296 304 306 306 310 314 316 317 312 299 303 308 315 318 318 327 327 322 317 319 317 316 313 312 303 290 291 298 303 308 307 312 315 317
187 244 289 303 285 282 261 269 283 289 292 294 304 309 309 312 313 315 317 307 308 307 313 316 316 313 311 309 313 313 311 310 306 304 306 301 294 294 295 296 300 302 309
242 286 102 293 90 120 226 291 305 303 306 310 312 318 327 324 325 331 328 325 320 315 314 315 315 311 314 313 309 309 307 304 301 298 293 290 291 289 290 290 294 301 306
128 132 165 279 296 316 321 318 313 315 323 337 341 334 328 331 321 321 328 327 320 313 319 323 325 322 328 330 327 327 326 325 322 319 313 304 297 290 291 293 295 299 305
120 151 222 304 313 323 338 342 335 333 329 333 335 335 330 330 320 316 323 317 316 326 326 323 322 322 325 330 333 330 335 339 336 336 342 346 354 348 353 338 327 321 325
153 316 332 329 328 307 313 314 316 322 330 334 337 336 339 334 324 327 333 334 342 331 326 326 332 323 314 317 319 327 330 324 330 334 341 349 339 334 334 334 331 330 316
Wind_Speed_850mb
57 52 53 48 34 26 15 14 38 44 52 51 58 60 56 52 58 69 76 65 60 62 65 57 71 69 58 56 56 51 48 52 54 55 54 53 52 51 40 42 51 49 41
45 47 50 52 49 39 30 12 6 14 29 42 46 50 52 54 55 63 63 67 71 69 66 62 62 60 58 52 54 52 47 53 53 55 61 68 65 61 47 51 63 67 56
44 44 45 45 40 41 36 25 15 9 11 15 23 39 49 52 60 57 60 61 60 64 61 48 34 45 50 46 62 57 56 52 45 34 34 26 23 32 33 37 52 56 52
38 38 36 39 42 40 32 27 25 22 20 19 20 18 18 28 30 36 43 57 62 55 50 58 41 70 87 76 77 68 55 49 31 37 44 32 44 54 49 34 37 36 34
30 28 26 29 29 29 29 27 26 25 28 28 26 24 22 22 25 26 36 46 42 36 36 18 27 55 61 64 59 40 42 17 17 29 30 43 24 36 55 57 50 42 17
23 22 19 15 15 17 19 23 26 29 32 34 35 31 29 25 24 24 25 23 23 25 19 7 31 33 41 33 41 41 47 64 45 66 43 47 25 54 47 38 32 31 35
16 17 15 13 12 10 11 16 22 28 32 33 33 34 33 33 34 35 29 26 20 12 14 8 11 13 10 22 39 56 70 58 72 46 47 46 44 48 47 38 41 30 27
9 10 12 11 7 1 4 13 19 22 25 26 26 27 29 32 34 35 36 32 28 24 18 11 16 12 9 7 14 27 32 29 47 49 52 56 50 43 43 42 45 50 46
14 9 7 6 5 3 4 11 13 15 15 19 22 25 29 31 33 31 26 21 20 18 13 10 8 10 10 12 8 8 6 12 25 33 35 47 43 40 34 42 45 51 52
30 26 20 15 9 3 7 7 6 6 10 15 21 27 32 37 37 34 33 29 24 19 13 6 5 6 11 10 9 8 10 7 11 18 26 34 36 34 28 31 37 36 38
37 32 28 23 15 4 5 7 2 1 6 8 12 21 26 33 38 39 41 40 34 29 24 21 17 11 8 6 17 18 16 11 11 8 5 4 9 14 16 13 14 24 28
40 40 35 29 21 10 4 3 5 4 5 10 14 19 27 33 36 40 43 45 43 36 33 31 26 21 21 23 15 16 16 19 16 15 13 11 9 11 12 13 15 18 22
48 47 41 36 26 18 7 9 8 6 3 9 13 18 26 29 30 35 40 42 42 41 38 40 40 34 23 17 22 23 27 25 28 28 23 20 14 12 11 12 18 20 18
39 43 46 41 32 23 13 14 8 8 8 10 18 21 27 28 30 34 36 42 39 40 40 43 49 42 28 22 18 23 30 34 36 39 38 35 30 25 19 19 18 14 15
25 37 50 49 41 28 15 12 22 17 14 20 24 27 29 33 33 33 36 36 39 50 50 46 49 51 36 25 23 23 28 31 34 37 35 39 36 30 25 16 17 17 13
18 10 29 48 44 44 29 23 21 19 28 36 28 29 38 39 38 28 31 39 43 45 44 49 60 54 34 26 24 23 25 29 36 37 31 24 25 30 29 33 27 19 16
16 12 4 17 38 42 35 25 21 29 31 21 22 31 29 26 22 22 30 32 35 41 49 59 55 47 33 27 24 26 22 26 28 30 33 25 22 21 19 27 37 34 31
13 9 7 9 16 17 19 22 19 20 9 3 4 15 19 21 24 31 36 38 42 50 58 51 46 43 38 36 29 24 23 25 25 23 30 24 26 25 22 19 20 19 17
14 10 6 8 14 15 12 14 16 14 12 20 22 27 30 33 35 38 43 50 54 55 54 50 45 39 32 30 26 24 27 30 27 20 22 26 29 20 17 16 16 19 23
16 18 15 15 11 8 8 19 23 30 26 27 25 30 36 41 48 49 48 43 44 43 46 44 34 28 26 25 28 30 25 29 27 24 25 29 30 31 27 26 29 31 37
23 21 14 6 7 5 11 21 29 26 28 34 38 41 44 51 53 60 49 37 38 41 43 38 33 27 26 28 33 36 37 37 35 34 32 32 33 35 37 39 36 38 36
15 9 14 19 17 23 22 22 22 20 25 31 36 45 50 54 50 43 34 33 34 36 34 34 36 30 32 38 38 38 40 40 39 41 42 44 44 47 47 46 46 45 54
12 8 1 7 5 4 5 12 17 24 31 39 44 45 35 26 24 26 28 30 28 32 37 40 43 41 38 39 36 37 42 45 46 47 51 55 54 53 51 48 54 62 60
6 4 4 10 17 19 26 32 29 28 28 25 27 27 32 32 31 27 26 26 32 34 37 39 39 38 33 34 35 36 38 42 40 40 40 41 44 47 49 48 50 45 34
6 6 2 9 18 26 18 15 19 24 26 26 27 37 39 34 27 26 25 26 33 32 32 34 38 33 32 35 38 42 38 32 39 33 27 28 25 25 21 20 21 21 23
3 5 14 19 16 13 22 23 22 25 25 26 40 37 35 31 23 24 20 24 31 31 28 31 31 26 31 35 37 26 30 35 30 30 27 26 27 30 32 33 32 30 30
Wind_Direction_850mb
105 91 85 81 77 86 100 181 207 217 229 241 245 260 244 259 262 274 266 260 262 267 265 271 257 254 257 255 252 254 266 268 269 273 274 269 264 259 262 235 243 249 255
82 75 70 66 64 62 62 60 312 249 248 239 242 259 255 255 268 272 268 259 256 258 258 257 249 249 260 265 253 254 255 260 269 273 279 283 276 267 259 245 236 254 255
70 63 50 46 45 43 42 46 53 31 0 312 285 260 260 262 261 274 275 266 255 255 255 253 250 253 266 272 270 252 250 262 259 279 307 308 313 310 290 279 256 252 249
61 56 51 46 42 41 35 32 36 35 29 13 346 336 325 312 326 322 314 304 304 302 271 269 301 273 278 273 297 280 263 255 274 296 318 304 288 308 296 283 253 256 272
63 62 57 51 47 47 43 33 29 40 38 30 26 13 9 9 2 349 329 320 328 328 329 292 230 238 245 259 270 238 246 298 300 351 324 315 269 293 275 280 283 274 277
81 77 63 62 61 43 35 22 17 18 22 11 9 11 18 15 5 9 17 11 355 347 329 235 209 243 262 270 238 228 278 265 254 306 287 287 243 246 267 281 280 281 282
86 76 81 89 75 52 12 5 8 2 5 13 15 19 19 14 18 19 14 9 15 4 355 333 238 283 290 274 260 258 254 255 259 265 261 236 239 268 265 264 268 270 272
95 88 83 85 92 131 315 353 0 15 25 30 33 29 26 24 24 25 24 24 24 22 11 334 305 312 304 358 316 264 255 242 232 261 257 267 274 263 261 267 263 274 271
185 167 179 172 181 219 345 357 11 35 41 48 51 52 52 48 42 36 30 26 22 25 16 18 1 350 322 7 5 21 357 292 276 269 255 274 281 273 266 270 265 266 270
210 209 206 200 199 225 346 1 41 44 76 72 62 52 42 34 30 26 28 28 23 15 6 5 1 320 325 357 12 13 20 339 301 279 271 278 276 270 271 269 269 261 260
217 216 210 209 214 214 340 302 290 112 99 79 38 14 19 16 16 20 23 18 13 11 5 355 343 337 332 311 279 295 300 319 288 299 263 311 298 280 274 271 277 270 264
226 221 211 216 231 228 257 272 209 199 276 326 350 15 13 15 20 23 23 21 18 15 14 8 353 329 319 323 321 327 317 301 310 305 298 312 330 343 326 311 307 307 302
219 221 214 227 227 231 274 299 224 184 91 60 18 17 3 360 6 11 11 17 18 13 15 14 8 358 343 331 306 321 326 297 290 296 302 317 318 294 300 309 316 315 312
221 224 225 229 230 238 288 284 270 220 225 318 327 351 353 348 348 349 355 1 8 3 360 2 1 356 345 333 332 316 307 313 312 297 296 296 295 304 316 308 295 298 305
204 226 227 222 217 221 236 326 268 254 272 291 320 328 339 338 335 327 340 348 348 351 350 348 346 341 334 334 324 326 330 330 329 327 300 289 285 286 284 326 313 274 278
66 172 221 215 211 221 232 270 238 244 272 274 300 319 317 317 317 308 330 330 335 339 337 335 333 332 329 325 312 316 323 327 331 334 329 321 289 279 283 277 297 312 300
91 96 106 225 237 233 269 240 244 256 274 255 286 302 308 317 311 312 317 319 321 326 327 326 329 335 330 326 319 306 317 316 326 333 333 324 315 311 308 291 283 291 294
103 100 134 196 225 242 247 225 238 216 224 211 265 290 306 314 312 307 309 315 321 325 327 331 327 327 328 327 318 309 301 303 309 324 336 332 316 314 312 297 296 309 301
112 107 103 151 154 153 137 184 217 215 251 293 299 300 304 310 311 312 315 311 312 317 317 320 328 331 331 332 318 304 302 302 301 298 308 316 331 322 323 324 313 300 297
166 164 162 164 188 208 265 275 287 298 285 286 295 308 314 312 313 315 313 312 314 316 322 324 331 339 337 321 321 321 313 307 308 279 287 296 311 316 306 307 314 311 311
162 155 154 141 130 136 305 294 292 296 304 306 306 310 314 316 317 312 299 303 308 315 318 318 327 327 322 317 319 317 316 313 312 303 290 291 298 303 308 307 312 315 317
187 244 289 303 285 282 261 269 283 289 292 294 304 309 309 312 313 315 317 307 308 307 313 316 316 313 311 309 313 313 311 310 306 304 306 301 294 294 295 296 300 302 309
242 286 102 293 90 120 226 291 305 303 306 310 312 318 327 324 325 331 328 325 320 315 314 315 315 311 314 313 309 309 307 304 301 298 293 290 291 289 290 290 294 301 306
128 132 165 279 296 316 321 318 313 315 323 337 341 334 328 331 321 321 328 327 320 313 319 323 325 322 328 330 327 327 326 325 322 319 313 304 297 290 291 293 295 299 305
120 151 222 304 313 323 338 342 335 333 329 333 335 335 330 330 320 316 323 317 316 326 326 323 322 322 325 330 333 330 335 339 336 336 342 346 354 348 353 338 327 321 325
153 316 332 329 328 307 313 314 316 322 330 334 337 336 339 334 324 327 333 334 342 331 326 326 332 323 314 317 319 327 330 324 330 334 341 349 339 334 334 334 331 330 316